{"data":{"norad_id":59940,"epoch":"2026-09-21T10:13:46.740288Z","epoch_age_seconds":97559,"freshness":"FRESH","line1":"1 59940U 24106U   26264.42623542  .00000644  00000+0  32926-4 0  9997","line2":"2 59940  43.0018 307.4917 0000979 279.2956  80.7784 15.27577796121083","mean_motion":15.27577796,"eccentricity":9.79e-5,"inclination_deg":43.0018,"raan_deg":307.4917,"arg_perigee_deg":279.2956,"mean_anomaly_deg":80.7784,"bstar":3.2926e-5,"rev_number":12108,"period_min":94.26688472238,"perigee_km":482.38398485157,"apogee_km":483.72740638138,"semimajor_km":6861.1926956165,"source":"CELESTRAK","updated_at":"2026-09-22T09:00:49.114488Z"}}